Printer-friendly version

IAU Minor Planet Center

Minor Planet Center

(71958) 2000 WR110

Orbital Elements

The following orbital elements are taken from MPO 51845
 (71958) 2000 WR110
Epoch 2007 Oct. 27.0 TT = JDT 2454400.5                 MPC
M  47.90575              (2000.0)            P               Q
n   0.28709933     Peri.   79.96927     +0.97686055     -0.20408193
a   2.2756978      Node   291.78400     +0.15910194     +0.89333107
e   0.1542007      Incl.    3.95111     +0.14293371     +0.40038751
P   3.43           H   16.1           G   0.15           U   1
From 81 observations at 4 oppositions, 1993-2003, mean residual 0".65.
An explanation of the orbital elements is available.

These orbital elements are also available in forms suitable for loading into a number of popular planetarium-type software programs.


Ephemeris

The following ephemeris is at intervals of five days. A daily ephemeris covering the same time interval is also available.

Personalized ephemerides for this (and other) objects may be generated using the Minor Planet & Comet Ephemeris Service.

Date    TT    R. A. (2000) Decl.     Delta      r     Elong.  Phase     V
2009 10 26    15 55.56   -22 15.1    3.221    2.399    28.9    11.5    21.2

2010 02 23    20 11.93   -20 16.3    2.950    2.193    33.4    14.4    21.0
2010 02 28    20 22.47   -19 37.4    2.908    2.184    35.9    15.4    21.0
2010 03 05    20 32.90   -18 56.2    2.865    2.175    38.3    16.4    21.0
2010 03 10    20 43.23   -18 12.8    2.819    2.167    40.8    17.4    20.9
2010 03 15    20 53.45   -17 27.2    2.772    2.158    43.2    18.4    20.9
2010 03 20    21 03.54   -16 39.7    2.723    2.149    45.7    19.4    20.9
2010 03 25    21 13.50   -15 50.3    2.673    2.140    48.1    20.3    20.9
2010 03 30    21 23.33   -14 59.3    2.622    2.132    50.5    21.2    20.9
2010 04 04    21 33.03   -14 06.7    2.570    2.123    53.0    22.1    20.8
2010 04 09    21 42.59   -13 12.6    2.516    2.115    55.4    22.9    20.8
2010 04 14    21 52.01   -12 17.3    2.461    2.106    57.8    23.8    20.8
2010 04 19    22 01.28   -11 20.8    2.406    2.098    60.3    24.6    20.8
2010 04 24    22 10.39   -10 23.4    2.350    2.090    62.7    25.3    20.7
2010 04 29    22 19.35   -09 25.2    2.293    2.082    65.2    26.0    20.7
2010 05 04    22 28.14   -08 26.4    2.235    2.074    67.7    26.7    20.6
2010 05 09    22 36.77   -07 27.0    2.177    2.066    70.2    27.4    20.6
2010 05 14    22 45.22   -06 27.3    2.119    2.058    72.7    28.0    20.5
2010 05 19    22 53.47   -05 27.5    2.060    2.050    75.2    28.5    20.5
2010 05 24    23 01.52   -04 27.7    2.001    2.043    77.8    29.0    20.4
2010 05 29    23 09.37   -03 28.1    1.943    2.036    80.4    29.4    20.4
2010 06 03    23 16.99   -02 28.9    1.884    2.029    83.1    29.8    20.3
2010 06 08    23 24.36   -01 30.2    1.825    2.022    85.8    30.0    20.2
2010 06 13    23 31.48   -00 32.4    1.766    2.015    88.5    30.3    20.2
2010 06 18    23 38.29   +00 24.5    1.708    2.008    91.4    30.4    20.1
2010 06 23    23 44.80   +01 20.2    1.651    2.002    94.3    30.4    20.0
2010 06 28    23 50.96   +02 14.5    1.594    1.996    97.2    30.4    19.9
2010 07 03    23 56.74   +03 07.2    1.538    1.990   100.3    30.2    19.8
2010 07 08    00 02.11   +03 57.9    1.482    1.984   103.5    29.9    19.7
2010 07 13    00 07.02   +04 46.4    1.428    1.978   106.8    29.5    19.6
2010 07 18    00 11.41   +05 32.4    1.375    1.973   110.3    28.9    19.5
2010 07 23    00 15.24   +06 15.6    1.324    1.968   113.9    28.2    19.4
2010 07 28    00 18.48   +06 55.6    1.274    1.963   117.6    27.3    19.3
2010 08 02    00 21.05   +07 32.1    1.226    1.958   121.5    26.2    19.2
2010 08 07    00 22.90   +08 04.6    1.181    1.954   125.6    25.0    19.1
2010 08 12    00 23.99   +08 32.6    1.138    1.950   129.9    23.5    18.9
2010 08 17    00 24.27   +08 55.7    1.098    1.946   134.5    21.8    18.8
2010 08 22    00 23.74   +09 13.5    1.061    1.943   139.2    19.9    18.7
2010 08 27    00 22.38   +09 25.7    1.028    1.939   144.1    17.8    18.5
2010 09 01    00 20.23   +09 31.9    0.999    1.936   149.2    15.5    18.4
2010 09 06    00 17.32   +09 31.9    0.975    1.934   154.5    13.0    18.2
2010 09 11    00 13.77   +09 25.6    0.955    1.931   159.8    10.4    18.1
2010 09 16    00 09.70   +09 13.6    0.941    1.929   165.0     7.7    17.9
2010 09 21    00 05.30   +08 56.3    0.931    1.928   169.6     5.4    17.8
2010 09 26    00 00.77   +08 34.6    0.928    1.926   172.2     4.1    17.7
2010 10 01    23 56.29   +08 09.6    0.930    1.925   170.6     4.9    17.8
2010 10 06    23 52.08   +07 42.6    0.938    1.924   166.3     7.1    17.9
2010 10 11    23 48.32   +07 15.0    0.951    1.924   161.2     9.7    18.0
2010 10 16    23 45.20   +06 48.2    0.970    1.923   155.8    12.3    18.2
2010 10 21    23 42.82   +06 23.6    0.994    1.924   150.4    14.8    18.3
2010 10 26    23 41.28   +06 02.1    1.022    1.924   145.1    17.2    18.5
2010 10 31    23 40.60   +05 44.4    1.055    1.925   140.0    19.4    18.6
2010 11 05    23 40.81   +05 31.2    1.092    1.926   135.1    21.3    18.8
2010 11 10    23 41.91   +05 22.8    1.132    1.927   130.3    23.1    18.9
2010 11 15    23 43.85   +05 19.5    1.175    1.929   125.8    24.6    19.0
2010 11 20    23 46.61   +05 21.3    1.221    1.930   121.5    25.9    19.1
2010 11 25    23 50.11   +05 27.9    1.269    1.933   117.3    27.0    19.3
2010 11 30    23 54.30   +05 39.2    1.320    1.935   113.3    27.9    19.4

Valid HTML 4.01!